Middlesboro, KY

2:30 AM EDT on March 28, 2017 (GMT -0400)
Middlesboro

Weather History for K1A6 - February, 2013

Change the Weather History Date:

Friday, February 15, 2013

  Actual Average (KLOZ) Record (KLOZ)
Temperature  
Mean Temperature 39 °F -  
Max Temperature 50 °F 50 °F 69 °F (1989)
Min Temperature 28 °F 32 °F -4 °F (1960)
Degree Days  
Heating Degree Days 26    
Moisture  
Dew Point 34 °F    
Average Humidity 87    
Maximum Humidity 100    
Minimum Humidity 66    
Precipitation  
Precipitation 0.00 in - - ()
Sea Level Pressure  
Sea Level Pressure 30.06 in    
Wind  
Wind Speed 1 mph (North)    
Max Wind Speed 8 mph    
Max Gust Speed -    
Visibility 8 miles    
Events Fog , Rain    
Averages and records for this station are not official NWS values.
T = Trace of Precipitation, MM = Missing Value Source: NWS Daily Summary

Daily Weather History Graph

Daily Weather History Graph

Search for Another Location

Airport or City:

Trip Planner

Search our weather history database for the weather conditions in past years. The results will help you decide how hot, cold, wet, or windy it might be!

Date:

Astronomy

Feb. 15, 2013 Rise Set
Actual Time 6:22 AM CST 5:15 PM CST
Civil Twilight 5:56 AM CST 5:42 PM CST
Nautical Twilight 5:26 AM CST 6:12 PM CST
Astronomical Twilight 4:56 AM CST 6:42 PM CST
Moon 9:08 AM CST (2/15) 11:04 PM CST (2/15)
Length of Visible Light 11h 45m
Length of Day
10h 53m
Waxing Crescent, 30% of the Moon is Illuminated
Feb 15
Waxing Crescent
Feb 17
First Quarter
Feb 25
Full
Mar 4
Last Quarter
Mar 11
New

Hourly Weather History & Observations

Time (CST) Temp. Windchill Dew Point Humidity Pressure Visibility Wind Dir Wind Speed Gust Speed Precip Events Conditions
12:15 AM 33.8 °F - 32.0 °F 93% 30.03 in 7.0 mi Calm Calm - N/A   Scattered Clouds
12:35 AM 33.8 °F - 32.0 °F 93% 30.03 in 7.0 mi Calm Calm - N/A   Clear
12:55 AM 33.8 °F - 32.0 °F 93% 30.03 in 5.0 mi Calm Calm - N/A   Scattered Clouds
1:15 AM 32.0 °F - 30.2 °F 93% 30.03 in 7.0 mi Calm Calm - N/A   Clear
1:35 AM 32.0 °F - 30.2 °F 93% 30.03 in 7.0 mi Calm Calm - N/A   Clear
1:55 AM 32.0 °F - 30.2 °F 93% 30.03 in 7.0 mi Calm Calm - N/A   Mostly Cloudy
2:15 AM 32.0 °F - 30.2 °F 93% 30.03 in 7.0 mi Calm Calm - N/A   Scattered Clouds
2:35 AM 32.0 °F - 30.2 °F 93% 30.02 in 7.0 mi Calm Calm - N/A   Scattered Clouds
2:55 AM 32.0 °F - 30.2 °F 93% 30.02 in 5.0 mi Calm Calm - N/A   Scattered Clouds
3:15 AM 30.2 °F - 30.2 °F 100% 30.02 in 5.0 mi Calm Calm - N/A   Clear
3:35 AM 30.2 °F - 30.2 °F 100% 30.02 in 7.0 mi Calm Calm - N/A   Clear
3:55 AM 30.2 °F - 28.4 °F 93% 30.02 in 7.0 mi Calm Calm - N/A   Clear
4:15 AM 30.2 °F - 28.4 °F 93% 30.03 in 7.0 mi Calm Calm - N/A   Clear
4:35 AM 28.4 °F - 28.4 °F 100% 30.03 in 7.0 mi Calm Calm - N/A   Scattered Clouds
4:55 AM 30.2 °F - 28.4 °F 93% 30.03 in 7.0 mi Calm Calm - N/A   Scattered Clouds
5:15 AM 30.2 °F - 28.4 °F 93% 30.04 in 5.0 mi Calm Calm - N/A   Mostly Cloudy
5:35 AM 30.2 °F - 28.4 °F 93% 30.04 in 5.0 mi Calm Calm - N/A   Mostly Cloudy
6:15 AM 30.2 °F - 28.4 °F 93% 30.06 in 2.5 mi Calm Calm - N/A   Overcast
6:35 AM 30.2 °F - 30.2 °F 100% 30.06 in 0.5 mi Calm Calm - N/A Fog Light Freezing Fog
6:55 AM 30.2 °F - 30.2 °F 100% 30.07 in 0.2 mi Calm Calm - N/A Fog Light Freezing Fog
7:15 AM 30.2 °F - 30.2 °F 100% 30.07 in 0.2 mi Calm Calm - N/A Fog Light Freezing Fog
7:55 AM 32.0 °F - 30.2 °F 93% 30.06 in 0.8 mi Calm Calm - N/A   Overcast
8:15 AM 33.8 °F - 33.8 °F 100% 30.06 in 4.0 mi Calm Calm - N/A   Scattered Clouds
8:35 AM 37.4 °F - 35.6 °F 93% 30.05 in 7.0 mi Calm Calm - N/A   Clear
8:55 AM 41.0 °F - 39.2 °F 93% 30.06 in 10.0 mi Calm Calm - N/A   Scattered Clouds
9:15 AM 44.6 °F - 37.4 °F 76% 30.05 in 10.0 mi Calm Calm - N/A   Mostly Cloudy
9:35 AM 44.6 °F - 39.2 °F 81% 30.05 in 10.0 mi Calm Calm - N/A   Scattered Clouds
9:55 AM 48.2 °F - 39.2 °F 71% 30.04 in 10.0 mi Calm Calm - N/A   Mostly Cloudy
10:15 AM 48.2 °F - 39.2 °F 71% 30.04 in 10.0 mi Calm Calm - N/A   Mostly Cloudy
10:35 AM 50.0 °F - 39.2 °F 66% 30.04 in 10.0 mi Calm Calm - N/A   Overcast
10:55 AM 50.0 °F - 39.2 °F 66% 30.04 in 10.0 mi SE 3.5 mph - N/A   Overcast
11:15 AM 48.2 °F - 39.2 °F 71% 30.04 in 10.0 mi Calm Calm - N/A   Overcast
11:55 AM 44.6 °F 40.2 °F 39.2 °F 81% 30.05 in 10.0 mi WNW 8.1 mph - N/A Rain Light Rain
12:15 PM 44.6 °F 40.7 °F 41.0 °F 87% 30.05 in 10.0 mi WNW 6.9 mph - N/A   Light Drizzle
12:35 PM 46.4 °F 42.9 °F 41.0 °F 81% 30.04 in 10.0 mi WNW 6.9 mph - N/A   Light Drizzle
12:55 PM 46.4 °F 43.5 °F 41.0 °F 81% 30.04 in 10.0 mi NE 5.8 mph - N/A   Overcast
1:15 PM 44.6 °F 40.2 °F 39.2 °F 81% 30.04 in 10.0 mi NNW 8.1 mph - N/A   Overcast
1:35 PM 42.8 °F 39.3 °F 39.2 °F 87% 30.05 in 10.0 mi NNW 5.8 mph - N/A   Overcast
1:55 PM 42.8 °F 38.6 °F 39.2 °F 87% 30.05 in 10.0 mi North 6.9 mph - N/A   Overcast
2:15 PM 42.8 °F 40.1 °F 39.2 °F 87% 30.05 in 10.0 mi North 4.6 mph - N/A Rain Light Rain
2:35 PM 42.8 °F 40.1 °F 37.4 °F 81% 30.05 in 10.0 mi NNW 4.6 mph - N/A Rain Light Rain
2:55 PM 42.8 °F 41.1 °F 37.4 °F 81% 30.05 in 10.0 mi NE 3.5 mph - N/A   Mostly Cloudy
3:15 PM 42.8 °F 39.3 °F 37.4 °F 81% 30.05 in 10.0 mi NE 5.8 mph - N/A   Mostly Cloudy
3:35 PM 44.6 °F - 37.4 °F 76% 30.05 in 10.0 mi Calm Calm - N/A   Overcast
3:55 PM 42.8 °F 40.1 °F 37.4 °F 81% 30.05 in 10.0 mi NNE 4.6 mph - N/A   Overcast
4:15 PM 42.8 °F 41.1 °F 37.4 °F 81% 30.05 in 10.0 mi North 3.5 mph - N/A   Overcast
4:35 PM 42.8 °F 40.1 °F 37.4 °F 81% 30.06 in 10.0 mi North 4.6 mph - N/A   Overcast
4:55 PM 39.2 °F 35.0 °F 35.6 °F 87% 30.08 in 10.0 mi NNW 5.8 mph - N/A Rain Light Rain
5:15 PM 39.2 °F - 35.6 °F 87% 30.09 in 10.0 mi Calm Calm - N/A   Overcast
5:35 PM 39.2 °F 37.0 °F 35.6 °F 87% 30.09 in 10.0 mi East 3.5 mph - N/A   Overcast
5:55 PM 39.2 °F 35.9 °F 33.8 °F 81% 30.09 in 10.0 mi NE 4.6 mph - N/A   Overcast
6:15 PM 39.2 °F 34.2 °F 33.8 °F 81% 30.10 in 10.0 mi NNE 6.9 mph - N/A   Overcast
6:35 PM 37.4 °F 34.9 °F 33.8 °F 87% 30.10 in 10.0 mi NNE 3.5 mph - N/A   Overcast
6:55 PM 37.4 °F - 33.8 °F 87% 30.10 in 10.0 mi Calm Calm - N/A   Mostly Cloudy
7:15 PM 37.4 °F 34.9 °F 33.8 °F 87% 30.10 in 10.0 mi NNE 3.5 mph - N/A   Clear
7:35 PM 37.4 °F - 33.8 °F 87% 30.10 in 10.0 mi Calm Calm - N/A   Clear
7:55 PM 37.4 °F - 33.8 °F 87% 30.10 in 10.0 mi Calm Calm - N/A   Clear
8:15 PM 35.6 °F - 33.8 °F 93% 30.11 in 10.0 mi Calm Calm - N/A   Clear
8:35 PM 35.6 °F - 33.8 °F 93% 30.10 in 10.0 mi Calm Calm - N/A   Clear
8:55 PM 35.6 °F - 33.8 °F 93% 30.10 in 10.0 mi Calm Calm - N/A   Clear
9:15 PM 35.6 °F - 33.8 °F 93% 30.10 in 10.0 mi Calm Calm - N/A   Clear
9:35 PM 35.6 °F - 33.8 °F 93% 30.10 in 10.0 mi Calm Calm - N/A   Clear
9:55 PM 35.6 °F 32.8 °F 33.8 °F 93% 30.09 in 10.0 mi East 3.5 mph - N/A   Mostly Cloudy
10:15 PM 35.6 °F 32.8 °F 35.6 °F 100% 30.09 in 10.0 mi North 3.5 mph - N/A   Mostly Cloudy
10:35 PM 37.4 °F 33.8 °F 30.2 °F 75% 30.08 in 10.0 mi NNW 4.6 mph - N/A   Scattered Clouds
10:55 PM 37.4 °F 32.8 °F 28.4 °F 70% 30.09 in 10.0 mi NNW 5.8 mph - N/A   Clear
11:15 PM 35.6 °F - 28.4 °F 75% 30.08 in 10.0 mi Calm Calm - N/A   Scattered Clouds
11:35 PM 35.6 °F - 28.4 °F 75% 30.08 in 10.0 mi Calm Calm - N/A   Scattered Clouds
11:55 PM 35.6 °F - 28.4 °F 75% 30.08 in 10.0 mi Calm Calm - N/A   Clear